Location: Fluertsh�userhof
(48.7537°N, 10.3850°E)
Time: 09:24:54
(UTC+00:00)

Cosmos 1300 Rocket - Pass Details

Date: 18 September 2020
Orbit: 601 x 627 km, 82.5° (Epoch: 27 October)

Event Time Altitude Azimuth Distance (km) Brightness Sun altitude
Rises 18:16:47 0° 164° (SSE) 2,877 6.7 -9.4°
Reaches altitude 10° 18:19:08 10° 155° (SSE) 1,981 5.8 -9.8°
Maximum altitude 18:23:05 34° 91° (E) 1,035 4.2 -10.4°
Drops below altitude 10° 18:27:05 10° 26° (NNE) 2,008 6.1 -11.1°
Sets 18:29:29 0° 18° (NNE) 2,922 7.0 -11.4°
